Homer, AK

2:05 PM AKDT on April 29, 2017 (GMT -0800)
Homer

Weather History for PAHO - September, 2013

Change the Weather History Date:

Monday, September 16, 2013

  Actual Average Record
Temperature  
Mean Temperature 47 °F -  
Max Temperature 57 °F 54 °F 63 °F (1954)
Min Temperature 39 °F 42 °F 26 °F (1939)
Degree Days  
Heating Degree Days 18    
Moisture  
Dew Point 40 °F    
Average Humidity 77    
Maximum Humidity 89    
Minimum Humidity 57    
Precipitation  
Precipitation 0.00 in - - ()
Sea Level Pressure  
Sea Level Pressure 29.64 in    
Wind  
Wind Speed 2 mph (SW)    
Max Wind Speed 13 mph    
Max Gust Speed 20 mph    
Visibility 8 miles    
Events Fog    
Averages and records for this station are not official NWS values.
T = Trace of Precipitation, MM = Missing Value Source: NWS Daily Summary

Daily Weather History Graph

Daily Weather History Graph

Search for Another Location

Airport or City:

Trip Planner

Search our weather history database for the weather conditions in past years. The results will help you decide how hot, cold, wet, or windy it might be!

Date:

Astronomy

Sep. 16, 2013 Rise Set
Actual Time 7:37 AM AKDT 8:22 PM AKDT
Civil Twilight 6:55 AM AKDT 9:03 PM AKDT
Nautical Twilight 6:04 AM AKDT 9:54 PM AKDT
Astronomical Twilight 5:07 AM AKDT 10:50 PM AKDT
Moon 7:01 PM AKDT (9/16) 4:01 AM AKDT (9/16)
Length of Visible Light 14h 07m
Length of Day
12h 44m
Waxing Gibbous, 91% of the Moon is Illuminated
Sep 16
Waxing Gibbous
Sep 19
Full
Sep 26
Last Quarter
Oct 4
New
Oct 11
First Quarter

Hourly Weather History & Observations

Time (AKDT) Temp. Windchill Dew Point Humidity Pressure Visibility Wind Dir Wind Speed Gust Speed Precip Events Conditions
12:53 AM 44.1 °F - 39.0 °F 82% 29.75 in 10.0 mi Calm Calm - N/A   Clear
1:53 AM 44.1 °F - 39.0 °F 82% 29.74 in 10.0 mi Calm Calm - N/A   Clear
2:53 AM 43.0 °F - 37.9 °F 82% 29.73 in 7.0 mi Calm Calm - N/A   Clear
3:34 AM 41.0 °F - 37.4 °F 87% 29.72 in 1.8 mi Calm Calm - N/A   Clear
3:44 AM 42.8 °F - 37.4 °F 81% 29.71 in 4.0 mi Calm Calm - N/A   Clear
3:53 AM 42.1 °F - 37.9 °F 85% 29.72 in 7.0 mi Calm Calm - N/A   Clear
4:06 AM 42.8 °F - 37.4 °F 81% 29.71 in 1.8 mi Calm Calm - N/A   Haze
4:22 AM 42.8 °F - 37.4 °F 81% 29.70 in 1.8 mi Calm Calm - N/A   Clear
4:36 AM 39.2 °F 37.0 °F 35.6 °F 87% 29.70 in 1.8 mi NE 3.5 mph - N/A   Clear
4:53 AM 41.0 °F - 37.0 °F 86% 29.70 in 3.0 mi Calm Calm - N/A   Clear
5:19 AM 39.2 °F - 35.6 °F 87% 29.69 in 1.8 mi Calm Calm - N/A   Clear
5:36 AM 41.0 °F - 37.4 °F 87% 29.68 in 2.0 mi Calm Calm - N/A   Clear
5:48 AM 41.0 °F - 37.4 °F 87% 29.68 in 10.0 mi Calm Calm - N/A   Clear
5:53 AM 42.1 °F - 37.0 °F 82% 29.68 in 10.0 mi Calm Calm - N/A Fog Patches of Fog
6:53 AM 41.0 °F 38.0 °F 37.9 °F 89% 29.67 in 10.0 mi NE 4.6 mph - N/A Fog Patches of Fog
7:53 AM 39.9 °F 35.8 °F 37.0 °F 89% 29.65 in 10.0 mi ENE 5.8 mph - N/A Fog Patches of Fog
8:53 AM 44.1 °F 42.5 °F 39.9 °F 85% 29.65 in 10.0 mi ENE 3.5 mph - N/A Fog Patches of Fog
9:53 AM 50.0 °F - 45.0 °F 83% 29.64 in 10.0 mi East 3.5 mph - N/A   Scattered Clouds
10:53 AM 51.1 °F - 44.1 °F 77% 29.63 in 10.0 mi East 3.5 mph - N/A   Scattered Clouds
11:53 AM 52.0 °F - 44.1 °F 74% 29.62 in 10.0 mi SSE 3.5 mph - N/A   Scattered Clouds
12:53 PM 54.0 °F - 45.0 °F 72% 29.61 in 10.0 mi SW 6.9 mph - N/A   Scattered Clouds
1:53 PM 55.0 °F - 42.1 °F 62% 29.59 in 10.0 mi WSW 12.7 mph - N/A   Clear
2:53 PM 55.0 °F - 41.0 °F 59% 29.58 in 10.0 mi WSW 12.7 mph - N/A   Clear
3:53 PM 55.9 °F - 41.0 °F 57% 29.56 in 10.0 mi West 12.7 mph 19.6 mph N/A   Clear
4:53 PM 55.0 °F - 41.0 °F 59% 29.55 in 10.0 mi WSW 11.5 mph - N/A   Clear
5:53 PM 55.0 °F - 41.0 °F 59% 29.54 in 10.0 mi WSW 11.5 mph - N/A   Clear
6:53 PM 54.0 °F - 42.1 °F 64% 29.54 in 10.0 mi SW 10.4 mph - N/A   Clear
7:53 PM 53.1 °F - 41.0 °F 64% 29.54 in 10.0 mi WSW 9.2 mph - N/A   Clear
8:53 PM 51.1 °F - 41.0 °F 68% 29.53 in 10.0 mi WSW 6.9 mph - N/A   Mostly Cloudy
9:53 PM 48.0 °F - 39.9 °F 74% 29.53 in 10.0 mi Calm Calm - N/A   Overcast
10:53 PM 48.0 °F - 39.9 °F 74% 29.53 in 10.0 mi Calm Calm - N/A   Clear
11:53 PM 48.0 °F - 39.9 °F 74% 29.52 in 10.0 mi Calm Calm - N/A   Overcast